Powrót do katalogu

STARLINK-30707

AktywnyŁącznośćVLEO
NORAD 57949·PAYLOAD·🇺🇸 United States

Wystrzelony Sep 25, 2023 z Vandenberg Space Force Base

Loading…

Następne Przeloty (najbliższe 24 godziny)

TLE

ŚwieżeSource: CelesTrak SupGP

Epoka: Sep 14, 2026, 21:24 UTC

1 57949C 23148Q   26257.89215278  .00037315  00000+0  11023-2 0  2570
2 57949  53.1585 221.8133 0001388  92.8820 188.4916 15.34377740    11

Śledź STARLINK-30707 w czasie rzeczywistym z AllMySat

Download on the App Store